Social login voor leden:
METAR EBOS 210920Z 13007KT 6000 NSC 02/M00 Q1015 NOSIG
TAF EBOS 210520Z 2106/2212 13006KT 9000 BKN018 TEMPO 2106/2111 BKN011 PROB40 TEMPO 2106/2110 BKN006 TEMPO 2201/2212 BKN007 PROB40 TEMPO 2203/2209 3500 DZ FZDZ BR BKN004 PROB30 TEMPO 2204/2208 0400 FG BKN001

Sonaca 200, onze nieuwe parel van Belgische makelij!

Begin december nemen wij ons eerste gloednieuw toestel van het type Sonaca 200 in gebruik! Dit is een volgende stap in het strategisch plan om onze vloot te vernieuwen. Dit toestel is van Belgische makelij en oogt niet alleen zeer mooi, maar is ook zeer performant. Het toestel zal enerzijds gebruikt worden als lestoestel, maar wordt anderzijds ook ter beschikking gesteld van onze leden. Wil je ook vliegen op de Sonaca 200? Aarzel niet om ons te contacteren om lid te worden!

 

Opleiding Piloot
Meevliegen
Visit Us
Agenda
Opleiding Piloot
Doopvluchten
Visit Us
Volgende activiteit
Noordzee Vliegclub - Nieuwpoortsesteenweg 947 8400 Oostende - Tel 059 30 04 79 - Dit e-mailadres wordt beveiligd tegen spambots. JavaScript dient ingeschakeld te zijn om het te bekijken.

 - Copyright 2017 ©